Location: Domont
(49.0278°N, 2.3264°E)
Time: 17:13:14
(UTC+00:00)

Envisat - Pass Details

Date: 30 January 2022
Orbit: 764 x 765 km, 98.2° (Epoch: 19 May)

Event Time Altitude Azimuth Distance (km) Brightness Sun altitude
Rises 05:06:44 0° 12° (NNE) 3,243 6.4 -22.5°
Reaches altitude 10° 05:09:03 10° 11° (N) 2,313 5.6 -22.2°
Maximum altitude 05:14:07 73° 287° (WNW) 803 2.8 -21.3°
Drops below altitude 10° 05:19:10 10° 204° (SSW) 2,298 5.3 -20.5°
Sets 05:21:28 0° 202° (SSW) 3,220 6.1 -20.1°
